HIMAWARI 9

导读

向日葵9号(HIMAWARI 9)是由日本宇宙航空研究开发机构和气象厅共同开发的第三代气象卫星,于2016年11月2日发射升空,是向日葵系列的第九颗卫星。卫星搭载高光谱成像仪与辐射计,提供最高0.5公里分辨率多光谱图像,每10分钟完成一次全球成像。观测数据广泛应用于台风、暴雨云团、火山喷发等气象灾害监测与预报,助力防灾减灾工作。

基本信息
目录编号:
41836
目录名称:
HIMAWARI 9
国际标识:
2016-064A
轨道中心:
EARTH
卫星名称:
HIMAWARI 9
卫星全名:
--
卫星状态:
在轨 (已飞行3554 天)
发射日期:
2016-11-02 UTC
国别 :
日本 (JP)
星等 :
--
轨道信息
数据来源 国际轨道数据 AOE轨道数据
星历时间 2026-07-27T19:44:52+0800
11小时前
查看轨道信息
2026-07-26T21:00:00+0800
1天前
查看轨道信息
半长轴 42166.158km 42165.233km
偏心率 0.0002526 0.0002506
轨道倾角 0.027° 0.023°
近地点辐角 100.912° 112.214°
升交点赤经 80.787° 74.201°
平近点角 80.439° 93.562°
近地点 35777.369km 35776.529km
远地点 35798.673km 35797.663km
周期 1436.170分钟 1436.122分钟
每日圈数 1.002667 1.0027
详细信息
使用方式:
暂无
2D轨道图
3D轨道图
轨道高度分析图
轨道倾角分析图
轨道综合分析图
查看轨道综合分析图